FIN605 EFHK-EFIV

Flight info

Callsign FIN605
Flight time 1h 19m
Altitude 38000
Route TEVRU Y75 USUPO DCT SOTIT
Aircraft A319/M-SDE1E2E3FGIJ1M1RWXYZ/LB1

Departure

Time 2026-05-09 08:25
Airport Helsinki Vantaa Airport (EFHK)

Arrival

Time 2026-05-09 09:44
Airport Ivalo Airport (EFIV)
Time Latitude Longitude Altitude Speed Heading
2026-05-09 07:59 60.31933 24.96381 164 ft 0 kts 137°
2026-05-09 08:20 60.31931 24.96385 164 ft 1 kts 137°
2026-05-09 08:20 60.31916 24.96410 164 ft 4 kts 141°
2026-05-09 08:20 60.31883 24.96383 163 ft 7 kts 220°
2026-05-09 08:21 60.31855 24.96293 163 ft 9 kts 252°
2026-05-09 08:21 60.31862 24.96163 164 ft 10 kts 298°
2026-05-09 08:21 60.31908 24.96063 167 ft 9 kts 319°
2026-05-09 08:21 60.31950 24.95989 169 ft 8 kts 318°
2026-05-09 08:22 60.31986 24.95922 171 ft 6 kts 317°
2026-05-09 08:22 60.32025 24.95850 173 ft 12 kts 317°
2026-05-09 08:22 60.32120 24.95675 173 ft 23 kts 317°
2026-05-09 08:22 60.32237 24.95460 175 ft 23 kts 317°
2026-05-09 08:23 60.32356 24.95263 177 ft 22 kts 336°
2026-05-09 08:23 60.32497 24.95172 179 ft 21 kts 342°
2026-05-09 08:23 60.32636 24.95082 181 ft 21 kts 342°
2026-05-09 08:23 60.32783 24.94986 177 ft 23 kts 342°
2026-05-09 08:24 60.32934 24.94840 177 ft 24 kts 317°
2026-05-09 08:24 60.33051 24.94622 183 ft 21 kts 318°
2026-05-09 08:24 60.33117 24.94430 188 ft 14 kts 264°
2026-05-09 08:24 60.33056 24.94261 194 ft 18 kts 227°
2026-05-09 08:25 60.32842 24.93790 183 ft 86 kts 227°
2026-05-09 08:25 60.32266 24.92532 171 ft 155 kts 226°
2026-05-09 08:25 60.31517 24.90846 758 ft 162 kts 225°
2026-05-09 08:25 60.30751 24.89127 1518 ft 167 kts 225°
2026-05-09 08:26 60.30227 24.86993 2252 ft 179 kts 253°
2026-05-09 08:26 60.30277 24.84308 2666 ft 208 kts 287°
2026-05-09 08:26 60.30668 24.82461 2928 ft 226 kts 294°
2026-05-09 08:26 60.31589 24.78362 3663 ft 258 kts 294°
2026-05-09 08:27 60.32418 24.75008 4504 ft 272 kts 298°
2026-05-09 08:27 60.33426 24.71735 5578 ft 278 kts 312°
2026-05-09 08:27 60.34403 24.69994 6308 ft 279 kts 330°
2026-05-09 08:27 60.36179 24.68615 7321 ft 277 kts 356°
2026-05-09 08:28 60.38083 24.68778 8351 ft 275 kts 12°
2026-05-09 08:28 60.39988 24.69377 9399 ft 279 kts 12°
2026-05-09 08:28 60.41933 24.69995 10410 ft 284 kts 11°
2026-05-09 08:28 60.43948 24.70630 10983 ft 304 kts 11°
2026-05-09 08:29 60.46085 24.71300 11492 ft 322 kts 11°
2026-05-09 08:29 60.48332 24.71997 12294 ft 330 kts 10°
2026-05-09 08:29 60.50620 24.72696 13173 ft 335 kts 10°
2026-05-09 08:29 60.52954 24.73409 14060 ft 340 kts
2026-05-09 08:30 60.55301 24.74126 14872 ft 343 kts
2026-05-09 08:30 60.57680 24.74858 15606 ft 348 kts
2026-05-09 08:30 60.60099 24.75607 16334 ft 353 kts
2026-05-09 08:30 60.62552 24.76368 17039 ft 359 kts
2026-05-09 08:31 60.65009 24.77133 17751 ft 364 kts
2026-05-09 08:31 60.67529 24.77921 18474 ft 369 kts
2026-05-09 08:31 60.70095 24.78725 19093 ft 375 kts
2026-05-09 08:31 60.72701 24.79536 19729 ft 379 kts
2026-05-09 08:32 60.75332 24.80356 20402 ft 382 kts
2026-05-09 08:32 60.77944 24.81172 21036 ft 387 kts
2026-05-09 08:32 60.83341 24.82841 22331 ft 394 kts
2026-05-09 08:33 60.86083 24.83562 23001 ft 397 kts
2026-05-09 08:33 60.88843 24.84198 23638 ft 401 kts
2026-05-09 08:33 60.91599 24.84799 24188 ft 405 kts
2026-05-09 08:33 60.94424 24.85415 24682 ft 409 kts
2026-05-09 08:34 60.97274 24.86051 25184 ft 413 kts
2026-05-09 08:34 61.00153 24.86713 25650 ft 417 kts
2026-05-09 08:34 61.03045 24.87396 26121 ft 421 kts
2026-05-09 08:34 61.05964 24.88099 26595 ft 424 kts
2026-05-09 08:35 61.08917 24.88814 27065 ft 428 kts
2026-05-09 08:35 61.11847 24.89519 27522 ft 431 kts
2026-05-09 08:35 61.14848 24.90240 28014 ft 434 kts
2026-05-09 08:35 61.17852 24.90963 28509 ft 436 kts
2026-05-09 08:36 61.20894 24.91693 28965 ft 439 kts
2026-05-09 08:36 61.23908 24.92419 29408 ft 443 kts
2026-05-09 08:36 61.26983 24.93163 29840 ft 446 kts
2026-05-09 08:36 61.30089 24.93922 30271 ft 449 kts
2026-05-09 08:37 61.33212 24.94685 30657 ft 453 kts
2026-05-09 08:37 61.36356 24.95449 31020 ft 455 kts
2026-05-09 08:37 61.39475 24.96204 31372 ft 458 kts
2026-05-09 08:37 61.42654 24.96977 31724 ft 460 kts
2026-05-09 08:38 61.45854 24.97754 32110 ft 462 kts
2026-05-09 08:38 61.49045 24.98530 32577 ft 461 kts
2026-05-09 08:38 61.52233 24.99314 33100 ft 459 kts
2026-05-09 08:38 61.55408 25.00103 33614 ft 458 kts
2026-05-09 08:39 61.58537 25.00879 34108 ft 457 kts
2026-05-09 08:39 61.61697 25.01665 34584 ft 456 kts
2026-05-09 08:39 61.64857 25.02465 35000 ft 455 kts
2026-05-09 08:39 61.68010 25.03271 35394 ft 455 kts
2026-05-09 08:40 61.71113 25.04073 35779 ft 454 kts
2026-05-09 08:40 61.74264 25.04892 36145 ft 453 kts
2026-05-09 08:40 61.77395 25.05708 36534 ft 452 kts
2026-05-09 08:40 61.80514 25.06518 36917 ft 451 kts
2026-05-09 08:41 61.83585 25.07317 37250 ft 450 kts
2026-05-09 08:41 61.86699 25.08133 37588 ft 449 kts
2026-05-09 08:41 61.89811 25.08955 37879 ft 450 kts
2026-05-09 08:41 61.92916 25.09773 38173 ft 450 kts
2026-05-09 08:42 61.96031 25.10589 38377 ft 450 kts
2026-05-09 08:42 62.02196 25.12199 38410 ft 448 kts
2026-05-09 08:43 62.08390 25.13824 38420 ft 448 kts
2026-05-09 08:43 62.14571 25.15464 38410 ft 447 kts
2026-05-09 08:44 62.20754 25.17104 38403 ft 447 kts
2026-05-09 08:44 62.26891 25.18763 38403 ft 447 kts
2026-05-09 08:45 62.33074 25.20422 38402 ft 447 kts
2026-05-09 08:45 62.39263 25.22078 38406 ft 447 kts
2026-05-09 08:46 62.45407 25.23741 38407 ft 447 kts
2026-05-09 08:46 62.51594 25.25429 38406 ft 447 kts
2026-05-09 08:47 62.57769 25.27114 38405 ft 447 kts
2026-05-09 08:47 62.63923 25.28803 38399 ft 447 kts
2026-05-09 08:48 62.70109 25.30514 38423 ft 447 kts
2026-05-09 08:48 62.76249 25.32213 38415 ft 447 kts
2026-05-09 08:49 62.82432 25.33919 38416 ft 447 kts
2026-05-09 08:49 62.88575 25.35625 38408 ft 447 kts
2026-05-09 08:50 62.94750 25.37353 38397 ft 447 kts
2026-05-09 08:50 63.00936 25.39116 38395 ft 447 kts
2026-05-09 08:51 63.07075 25.40854 38419 ft 447 kts
2026-05-09 08:51 63.13251 25.42597 38410 ft 446 kts
2026-05-09 08:52 63.19386 25.44341 38403 ft 446 kts
2026-05-09 08:52 63.25548 25.46099 38399 ft 446 kts
2026-05-09 08:53 63.31717 25.47864 38389 ft 446 kts
2026-05-09 08:53 63.37844 25.49637 38406 ft 445 kts
2026-05-09 08:54 63.43999 25.51433 38394 ft 445 kts
2026-05-09 08:54 63.50115 25.53211 38393 ft 445 kts
2026-05-09 08:55 63.56273 25.55000 38389 ft 445 kts
2026-05-09 08:55 63.62397 25.56795 38392 ft 445 kts
2026-05-09 08:56 63.68513 25.58590 38416 ft 445 kts
2026-05-09 08:56 63.74660 25.60406 38407 ft 445 kts
2026-05-09 08:57 63.80814 25.62233 38400 ft 445 kts
2026-05-09 08:57 63.86913 25.64066 38393 ft 445 kts
2026-05-09 08:58 63.93056 25.65906 38394 ft 445 kts
2026-05-09 08:58 63.99219 25.67760 38422 ft 445 kts
2026-05-09 08:59 64.05325 25.69608 38408 ft 445 kts
2026-05-09 08:59 64.11470 25.71466 38400 ft 444 kts
2026-05-09 09:00 64.17599 25.73333 38393 ft 444 kts
2026-05-09 09:00 64.23687 25.75205 38393 ft 443 kts
2026-05-09 09:01 64.29804 25.77091 38392 ft 443 kts
2026-05-09 09:01 64.35930 25.78984 38407 ft 443 kts
2026-05-09 09:02 64.41995 25.80878 38396 ft 442 kts
2026-05-09 09:02 64.48102 25.82785 38387 ft 441 kts
2026-05-09 09:03 64.54192 25.84702 38387 ft 441 kts
2026-05-09 09:03 64.60243 25.86611 38383 ft 441 kts
2026-05-09 09:04 64.66326 25.88526 38403 ft 440 kts
2026-05-09 09:04 64.72407 25.90450 38396 ft 440 kts
2026-05-09 09:05 64.78449 25.92386 38383 ft 440 kts
2026-05-09 09:05 64.84525 25.94347 38379 ft 440 kts
2026-05-09 09:06 64.90597 25.96307 38366 ft 440 kts
2026-05-09 09:06 64.96629 25.98260 38391 ft 440 kts
2026-05-09 09:07 65.02708 26.00227 38386 ft 440 kts
2026-05-09 09:07 65.08738 26.02192 38381 ft 440 kts
2026-05-09 09:08 65.14823 26.04197 38382 ft 440 kts
2026-05-09 09:08 65.20902 26.06197 38378 ft 441 kts
2026-05-09 09:09 65.26985 26.08194 38367 ft 441 kts
2026-05-09 09:09 65.33023 26.10193 38394 ft 441 kts
2026-05-09 09:10 65.39101 26.12247 38383 ft 440 kts
2026-05-09 09:10 65.45188 26.14308 38380 ft 440 kts
2026-05-09 09:11 65.51221 26.16339 38380 ft 440 kts
2026-05-09 09:11 65.57297 26.18386 38379 ft 440 kts
2026-05-09 09:12 65.63366 26.20453 38385 ft 440 kts
2026-05-09 09:12 65.69408 26.22522 38375 ft 440 kts
2026-05-09 09:13 65.75476 26.24615 38373 ft 440 kts
2026-05-09 09:13 65.81545 26.26733 38372 ft 440 kts
2026-05-09 09:14 65.87583 26.28841 38371 ft 440 kts
2026-05-09 09:14 65.93648 26.30940 38371 ft 440 kts
2026-05-09 09:15 65.99718 26.33054 38390 ft 440 kts
2026-05-09 09:15 66.05750 26.35177 38379 ft 440 kts
2026-05-09 09:16 66.11823 26.37338 38376 ft 440 kts
2026-05-09 09:16 66.20936 26.40587 38371 ft 440 kts
2026-05-09 09:17 66.26966 26.42739 38370 ft 440 kts
2026-05-09 09:17 66.33038 26.44920 38393 ft 441 kts
2026-05-09 09:18 66.38089 26.46729 38382 ft 441 kts
2026-05-09 09:18 66.44166 26.48933 38369 ft 441 kts
2026-05-09 09:19 66.51224 26.51526 38365 ft 441 kts
2026-05-09 09:19 66.56312 26.53413 38364 ft 441 kts
2026-05-09 09:20 66.62354 26.55630 38393 ft 441 kts
2026-05-09 09:20 66.68436 26.57871 38327 ft 441 kts
2026-05-09 09:21 66.71433 26.58972 38052 ft 439 kts
2026-05-09 09:21 66.74457 26.60086 37628 ft 438 kts
2026-05-09 09:21 66.77492 26.61215 36831 ft 441 kts
2026-05-09 09:21 66.80542 26.62362 36017 ft 444 kts
2026-05-09 09:22 66.83615 26.63521 35144 ft 447 kts
2026-05-09 09:22 66.86655 26.64670 34587 ft 444 kts
2026-05-09 09:22 66.89697 26.65836 33984 ft 440 kts
2026-05-09 09:22 66.92703 26.66995 33433 ft 433 kts
2026-05-09 09:23 66.95673 26.68145 32891 ft 427 kts
2026-05-09 09:23 66.98597 26.69276 32348 ft 422 kts
2026-05-09 09:23 67.01483 26.70375 31827 ft 416 kts
2026-05-09 09:23 67.04326 26.71445 31306 ft 410 kts
2026-05-09 09:24 67.07109 26.72500 30804 ft 405 kts
2026-05-09 09:24 67.09883 26.73560 30280 ft 401 kts
2026-05-09 09:24 67.12627 26.74609 29760 ft 395 kts
2026-05-09 09:24 67.15323 26.75647 29286 ft 388 kts
2026-05-09 09:25 67.17974 26.76671 28826 ft 382 kts
2026-05-09 09:25 67.20588 26.77681 28366 ft 377 kts
2026-05-09 09:25 67.23167 26.78678 27931 ft 371 kts
2026-05-09 09:25 67.25678 26.79650 27511 ft 368 kts
2026-05-09 09:26 67.28198 26.80637 27103 ft 364 kts
2026-05-09 09:26 67.30699 26.81620 26721 ft 360 kts
2026-05-09 09:26 67.33173 26.82591 26279 ft 357 kts
2026-05-09 09:26 67.35584 26.83534 25875 ft 353 kts
2026-05-09 09:27 67.37999 26.84478 25454 ft 350 kts
2026-05-09 09:27 67.40397 26.85421 25026 ft 346 kts
2026-05-09 09:27 67.42772 26.86357 24605 ft 343 kts
2026-05-09 09:27 67.45119 26.87289 24179 ft 340 kts
2026-05-09 09:28 67.47452 26.88208 23717 ft 337 kts
2026-05-09 09:28 67.49762 26.89113 23266 ft 333 kts
2026-05-09 09:28 67.52048 26.90007 22836 ft 329 kts
2026-05-09 09:28 67.54279 26.90889 22418 ft 326 kts
2026-05-09 09:29 67.56506 26.91788 22005 ft 323 kts
2026-05-09 09:29 67.58725 26.92683 21597 ft 320 kts
2026-05-09 09:29 67.60926 26.93563 21181 ft 318 kts
2026-05-09 09:29 67.63114 26.94437 20777 ft 316 kts
2026-05-09 09:30 67.65262 26.95302 20392 ft 315 kts
2026-05-09 09:30 67.67428 26.96181 19979 ft 314 kts
2026-05-09 09:30 67.69590 26.97058 19578 ft 314 kts
2026-05-09 09:30 67.71747 26.97931 19184 ft 313 kts
2026-05-09 09:31 67.73897 26.98801 18791 ft 312 kts
2026-05-09 09:31 67.76044 26.99679 18362 ft 311 kts
2026-05-09 09:31 67.78205 27.00557 17689 ft 317 kts
2026-05-09 09:32 67.82505 27.02311 16896 ft 312 kts
2026-05-09 09:32 67.84649 27.03190 16513 ft 310 kts
2026-05-09 09:32 67.86783 27.04062 16131 ft 308 kts
2026-05-09 09:32 67.88901 27.04934 15752 ft 307 kts
2026-05-09 09:33 67.91004 27.05800 15374 ft 305 kts
2026-05-09 09:33 67.93073 27.06649 15004 ft 304 kts
2026-05-09 09:33 67.95164 27.07504 14629 ft 303 kts
2026-05-09 09:33 67.97254 27.08367 14256 ft 302 kts
2026-05-09 09:34 67.99335 27.09234 13872 ft 301 kts
2026-05-09 09:34 68.01402 27.10103 13467 ft 299 kts
2026-05-09 09:34 68.03426 27.10953 13105 ft 296 kts
2026-05-09 09:36 68.17305 27.16760 10476 ft 284 kts
2026-05-09 09:36 68.19251 27.17577 10108 ft 282 kts
2026-05-09 09:36 68.21192 27.18399 10043 ft 283 kts
2026-05-09 09:37 68.23125 27.19187 9889 ft 276 kts
2026-05-09 09:37 68.25015 27.19167 9515 ft 269 kts 351°
2026-05-09 09:37 68.26878 27.18749 9057 ft 268 kts 351°
2026-05-09 09:37 68.28744 27.18342 8569 ft 268 kts 352°
2026-05-09 09:38 68.30568 27.17950 8201 ft 266 kts 352°
2026-05-09 09:38 68.32416 27.17555 7820 ft 265 kts 352°
2026-05-09 09:38 68.34259 27.17169 7443 ft 265 kts 353°
2026-05-09 09:38 68.36094 27.16779 7053 ft 264 kts 353°
2026-05-09 09:39 68.37927 27.16380 6679 ft 263 kts 352°
2026-05-09 09:39 68.39725 27.15668 6296 ft 259 kts 341°
2026-05-09 09:39 68.41357 27.13814 5926 ft 250 kts 327°
2026-05-09 09:39 68.42703 27.11044 5556 ft 242 kts 314°
2026-05-09 09:40 68.43917 27.07909 5202 ft 238 kts 313°
2026-05-09 09:40 68.45132 27.04877 4823 ft 236 kts 319°
2026-05-09 09:40 68.46650 27.03300 4464 ft 237 kts 355°
2026-05-09 09:40 68.48220 27.04384 4114 ft 233 kts 33°
2026-05-09 09:41 68.49354 27.07308 3793 ft 224 kts 50°
2026-05-09 09:41 68.50406 27.10389 3457 ft 219 kts 50°
2026-05-09 09:41 68.51430 27.13369 3127 ft 210 kts 50°
2026-05-09 09:41 68.52405 27.16187 2879 ft 198 kts 49°
2026-05-09 09:42 68.53331 27.18869 2520 ft 191 kts 50°
2026-05-09 09:42 68.54216 27.21435 2233 ft 180 kts 50°
2026-05-09 09:42 68.55042 27.23828 1998 ft 167 kts 50°
2026-05-09 09:42 68.55826 27.26103 1735 ft 162 kts 49°
2026-05-09 09:43 68.56576 27.28284 1481 ft 154 kts 50°
2026-05-09 09:43 68.57291 27.30395 1276 ft 148 kts 50°
2026-05-09 09:43 68.57976 27.32447 1070 ft 145 kts 51°
2026-05-09 09:43 68.58646 27.34417 892 ft 141 kts 49°
2026-05-09 09:44 68.59313 27.36382 726 ft 141 kts 50°
2026-05-09 09:44 68.59972 27.38320 548 ft 138 kts 49°
2026-05-09 09:44 68.60581 27.40107 473 ft 105 kts 46°
2026-05-09 09:44 68.60927 27.41115 473 ft 47 kts 47°
2026-05-09 09:45 68.61029 27.41454 473 ft 14 kts 81°
2026-05-09 09:45 68.60972 27.41637 476 ft 10 kts 134°
2026-05-09 09:45 68.60946 27.41722 473 ft 0 kts 129°
2026-05-09 09:46 68.60944 27.41729 474 ft 1 kts 129°
2026-05-09 09:46 68.60935 27.41753 478 ft 2 kts 139°
2026-05-09 09:47 68.60917 27.41777 479 ft 3 kts 160°
2026-05-09 09:47 68.60890 27.41795 478 ft 3 kts 168°
2026-05-09 09:47 68.60868 27.41806 481 ft 2 kts 171°
2026-05-09 09:47 68.60863 27.41808 476 ft 0 kts 170°